Regional Weather Roundup
Issued by NWS Jackson, KY

Home | Current Version | Previous Version | Graphics & Text | Print | Product List | Glossary On
Versions: 1 2 3 4 5 6 7 8 9 10 11 12 13 14 15 16 17 18 19 20 21 22 23 24 25 26 27 28 29 30 31 32 33 34 35 36 37 38 39 40 41 42 43 44 45 46 47 48 49 50
000
ASUS43 KJKL 281610
RWRJKL

EAST KENTUCKY HOURLY WEATHER ROUNDUP
NATIONAL WEATHER SERVICE JACKSON KY
1200 PM EDT SAT MAR 28 2015

NOTE: "FAIR" INDICATES FEW OR NO CLOUDS BELOW 12,000 FEET WITH
NO SIGNIFICANT WEATHER AND/OR OBSTRUCTIONS TO VISIBILITY.

* THESE REPORTS ARE NOT UNDER NWS QUALITY CONTROL AND MAY NOT
  REPORT WEATHER SUCH AS PRECIPITATION AND FOG.

KYZ079-080-083-085-087-088-110-112-115-119-120-281700
...EASTERN KENTUCKY...

CITY           SKY/WX    TMP DP  RH WIND       PRES   REMARKS
JACKSON        SUNNY     31   8  38 VRB3      30.19S
LONDON         SUNNY     34  13  41 NE7       30.21S WCI  28
SOMERSET*      MOSUNNY   32  14  47 N5        30.26S WCI  27
MONTICELLO*    SUNNY     34  15  46 NW6       30.27R WCI  29
MIDDLESBORO*   MOSUNNY   33  16  50 N5        30.21R WCI  28
HAZARD APT*    PTSUNNY   32  14  47 W5        30.20S WCI  27
BLACK MTN*       N/A     21  21 100 N3          N/A
PIKEVILLE APT* PTSUNNY   28   9  43 N9        30.18S WCI  20
BIG SANDY*     MOSUNNY   32  11  42 N10G16    30.20S WCI  24
MOREHEAD APT*  SUNNY     30   9  40 NW10G16   30.26S WCI  21
$$

KYZ035-036-041-042-044-050-067-078-099-281700
...CENTRAL KENTUCKY...

CITY           SKY/WX    TMP DP  RH WIND       PRES   REMARKS
MT STERLING*   PTSUNNY   32  14  47 N9        30.26S WCI  24
FLEMING/MASON* PTSUNNY   28  10  47 N7        30.28R WCI  21
DANVILLE*      MOSUNNY   32  16  51 NE8       30.26S WCI  25
RICHMOND*      MOSUNNY   28  12  50 N3        30.24S
LEXINGTON      MOSUNNY   32  12  43 NE8       30.26R WCI  25
FRANKFORT        N/A    N/A N/A N/A MISG      30.27R
$$

KYZ091>093-OHZ055-061-077-WVZ005-015-034-035-042-281700
...SOUTHERN OHIO/WEST VIRGINIA...

CITY           SKY/WX    TMP DP  RH WIND       PRES   REMARKS
COVINGTON      MOSUNNY   30  13  49 NE9       30.27S WCI  22
COLUMBUS       MOSUNNY   27   9  46 N14G20    30.27R WCI  16
DAYTON         MOSUNNY   27   9  46 N10       30.29R WCI  17
WILMINGTON     MOSUNNY   26   9  48 N10       30.26S WCI  16
HUNTINGTON     PTSUNNY   27   9  46 W6G20     30.24R WCI  20
CHARLESTON     PTSUNNY   27   6  41 W10G18    30.21R WCI  17
PINEVILLE*     PTSUNNY   29  11  47 MISG      30.17R
BECKLEY        SNOW      18  13  80 NW12      30.06R VSB 1/2 WCI   5
BLUEFIELD      MOSUNNY   25   5  42 NW10G20   30.03R WCI  15
$$

VAZ002-007-008-TNZ017-027-036-066-071-281700
...SOUTHWEST VIRGINIA/EAST TENNESSEE...

CITY           SKY/WX    TMP DP  RH WIND       PRES   REMARKS
WISE*          FLURRIES  25  12  58 NW8       30.09S WCI  16
JONESVILLE*    SUNNY     34  12  40 N7        30.19S WCI  28
ABINGDON*      PTSUNNY   30  14  52 NW14G22   30.10S WCI  19
BRISTOL        PTSUNNY   32  15  49 NW13      30.14S WCI  22
KNOXVILLE      MOSUNNY   37  16  42 N5        30.19R WCI  33
OAK RIDGE      SUNNY     39  15  37 VRB3      30.20F
CROSSVILLE     SUNNY     34  15  46 N10       30.16S WCI  26
NASHVILLE      MOSUNNY   39  14  36 N8        30.29R WCI  33
$$

...KEY TO REMARKS...
VSB - VISIBILITY IN MILES
WCI - WIND CHILL INDEX
HX  - HEAT INDEX

$$


USA.gov is the U.S. government's official web portal to all federal, state and local government web resources and services.